Location: Dos Palmas
(32.4468°N, 116.8732°W)
Time: 00:35:32
(UTC+00:00)

Cosmos 1943 Rocket - Pass Details

Date: 20 June 2021
Orbit: 813 x 843 km, 71.0° (Epoch: 27 July)

Event Time Altitude Azimuth Distance (km) Brightness Sun altitude
Rises 08:09:19 0° 341° (NNW) 3,340 6.2 -33.9°
Reaches altitude 10° 08:11:45 10° 344° (NNW) 2,407 5.3 -33.9°
Enters shadow 08:15:27 43° 355° (N) 1,128 3.1 -33.8°
